Time,TemperatureF,DewpointF,PressureIn,WindDirection,WindDirectionDegrees,WindSpeedMPH,WindSpeedGustMPH,Humidity,HourlyPrecipIn,Conditions,Clouds,dailyrainin,SolarRadiationWatts/m^2,SoftwareType,DateUTC
2013-05-26 00:02:00,52.0,46.0,-100.00,ESE,108,11.0,17.0,81,0.00,,,0.00,0.000000,,2013-05-26 05:02:00,
2013-05-26 00:11:00,52.0,46.0,-100.00,ESE,103,11.0,17.0,79,0.00,,,0.00,0.000000,,2013-05-26 05:11:00,
2013-05-26 00:32:00,52.0,46.0,-100.00,ESE,103,11.0,17.0,79,0.00,,,0.00,0.000000,,2013-05-26 05:32:00,
2013-05-26 00:42:00,52.0,46.0,-100.00,ESE,103,11.0,17.0,79,0.00,,,0.00,0.000000,,2013-05-26 05:42:00,
2013-05-26 00:52:00,52.0,46.0,-100.00,ESE,103,11.0,17.0,79,0.00,,,0.00,0.000000,,2013-05-26 05:52:00,
2013-05-26 01:01:00,52.0,46.0,-100.00,ESE,103,11.0,17.0,79,0.00,,,0.00,0.000000,,2013-05-26 06:01:00,
2013-05-26 01:11:00,52.0,46.0,-100.00,ESE,109,11.0,19.0,79,0.00,,,0.00,0.000000,,2013-05-26 06:11:00,
2013-05-26 01:32:00,52.0,46.0,-100.00,ESE,109,11.0,19.0,79,0.00,,,0.00,0.000000,,2013-05-26 06:32:00,
2013-05-26 01:42:00,52.0,46.0,-100.00,ESE,109,11.0,19.0,79,0.00,,,0.00,0.000000,,2013-05-26 06:42:00,
2013-05-26 01:52:00,52.0,46.0,-100.00,ESE,109,11.0,19.0,79,0.00,,,0.00,0.000000,,2013-05-26 06:52:00,
2013-05-26 02:01:00,52.0,46.0,-100.00,ESE,109,11.0,19.0,79,0.00,,,0.00,0.000000,,2013-05-26 07:01:00,
2013-05-26 02:11:00,50.0,42.0,-100.00,ESE,115,10.0,19.0,75,0.00,,,0.00,0.000000,,2013-05-26 07:11:00,
2013-05-26 02:32:00,50.0,42.0,-100.00,ESE,115,10.0,19.0,75,0.00,,,0.00,0.000000,,2013-05-26 07:32:00,
2013-05-26 02:42:00,50.0,42.0,-100.00,ESE,115,10.0,19.0,75,0.00,,,0.00,0.000000,,2013-05-26 07:42:00,
2013-05-26 02:52:00,50.0,42.0,-100.00,ESE,115,10.0,19.0,75,0.00,,,0.00,0.000000,,2013-05-26 07:52:00,
2013-05-26 03:01:00,50.0,42.0,-100.00,ESE,115,10.0,19.0,75,0.00,,,0.00,0.000000,,2013-05-26 08:01:00,
2013-05-26 03:11:00,50.0,42.0,-100.00,ESE,116,10.0,20.0,74,0.00,,,0.00,0.000000,,2013-05-26 08:11:00,
2013-05-26 03:32:00,50.0,42.0,-100.00,ESE,116,10.0,20.0,74,0.00,,,0.00,0.000000,,2013-05-26 08:32:00,
2013-05-26 03:42:00,50.0,42.0,-100.00,ESE,116,10.0,20.0,74,0.00,,,0.00,0.000000,,2013-05-26 08:42:00,
2013-05-26 03:53:00,50.0,42.0,-100.00,ESE,116,10.0,20.0,74,0.00,,,0.00,0.000000,,2013-05-26 08:53:00,
2013-05-26 04:01:00,50.0,42.0,-100.00,ESE,116,10.0,20.0,74,0.00,,,0.00,0.000000,,2013-05-26 09:01:00,
2013-05-26 04:11:00,50.0,43.0,-100.00,ESE,107,11.0,16.0,76,0.00,,,0.00,0.000000,,2013-05-26 09:11:00,
2013-05-26 04:34:00,50.0,43.0,-100.00,ESE,107,11.0,16.0,76,0.00,,,0.00,0.000000,,2013-05-26 09:34:00,
2013-05-26 04:43:00,50.0,43.0,-100.00,ESE,107,11.0,16.0,76,0.00,,,0.00,0.000000,,2013-05-26 09:43:00,
2013-05-26 04:53:00,50.0,43.0,-100.00,ESE,107,11.0,16.0,76,0.00,,,0.00,0.000000,,2013-05-26 09:53:00,
2013-05-26 05:02:00,50.0,43.0,-100.00,ESE,107,11.0,16.0,76,0.00,,,0.00,0.000000,,2013-05-26 10:02:00,
2013-05-26 05:11:00,50.0,42.0,-100.00,ESE,103,11.0,17.0,75,0.00,,,0.00,0.000000,,2013-05-26 10:11:00,
2013-05-26 05:33:00,50.0,42.0,-100.00,ESE,103,11.0,17.0,75,0.00,,,0.00,0.000000,,2013-05-26 10:33:00,
2013-05-26 05:42:00,50.0,42.0,-100.00,ESE,103,11.0,17.0,75,0.00,,,0.00,0.000000,,2013-05-26 10:42:00,
2013-05-26 05:52:00,50.0,42.0,-100.00,ESE,103,11.0,17.0,75,0.00,,,0.00,0.000000,,2013-05-26 10:52:00,
2013-05-26 06:03:00,50.0,42.0,-100.00,ESE,103,11.0,17.0,75,0.00,,,0.00,0.000000,,2013-05-26 11:03:00,
2013-05-26 06:11:00,50.0,42.0,-100.00,ESE,103,11.0,17.0,74,0.00,,,0.00,4.000000,,2013-05-26 11:11:00,
2013-05-26 06:32:00,50.0,42.0,-100.00,ESE,103,11.0,17.0,74,0.00,,,0.00,4.000000,,2013-05-26 11:32:00,
2013-05-26 06:42:00,50.0,42.0,-100.00,ESE,103,11.0,17.0,74,0.00,,,0.00,4.000000,,2013-05-26 11:42:00,
2013-05-26 06:52:00,50.0,42.0,-100.00,ESE,103,11.0,17.0,74,0.00,,,0.00,4.000000,,2013-05-26 11:52:00,
2013-05-26 07:02:00,50.0,42.0,-100.00,ESE,103,11.0,17.0,74,0.00,,,0.00,4.000000,,2013-05-26 12:02:00,
2013-05-26 07:11:00,51.0,42.0,-100.00,ESE,106,13.0,19.0,72,0.00,,,0.00,36.000000,,2013-05-26 12:11:00,
2013-05-26 07:32:00,51.0,42.0,-100.00,ESE,106,13.0,19.0,72,0.00,,,0.00,36.000000,,2013-05-26 12:32:00,
2013-05-26 07:42:00,51.0,42.0,-100.00,ESE,106,13.0,19.0,72,0.00,,,0.00,36.000000,,2013-05-26 12:42:00,
2013-05-26 07:52:00,51.0,42.0,-100.00,ESE,106,13.0,19.0,72,0.00,,,0.00,36.000000,,2013-05-26 12:52:00,
2013-05-26 08:02:00,51.0,42.0,-100.00,ESE,106,13.0,19.0,72,0.00,,,0.00,36.000000,,2013-05-26 13:02:00,
2013-05-26 08:11:00,51.0,42.0,-100.00,ESE,102,15.0,20.0,71,0.00,,,0.00,36.000000,,2013-05-26 13:11:00,
2013-05-26 08:32:00,51.0,42.0,-100.00,ESE,102,15.0,20.0,71,0.00,,,0.00,36.000000,,2013-05-26 13:32:00,
2013-05-26 08:42:00,51.0,42.0,-100.00,ESE,102,15.0,20.0,71,0.00,,,0.00,36.000000,,2013-05-26 13:42:00,
2013-05-26 08:52:00,51.0,42.0,-100.00,ESE,102,15.0,20.0,71,0.00,,,0.00,36.000000,,2013-05-26 13:52:00,
2013-05-26 09:02:00,51.0,42.0,-100.00,ESE,102,15.0,20.0,71,0.00,,,0.00,36.000000,,2013-05-26 14:02:00,
2013-05-26 09:11:00,52.0,43.0,-100.00,ESE,103,17.0,26.0,72,0.00,,,0.00,89.000000,,2013-05-26 14:11:00,
2013-05-26 09:32:00,52.0,43.0,-100.00,ESE,103,17.0,26.0,72,0.00,,,0.00,89.000000,,2013-05-26 14:32:00,
2013-05-26 09:42:00,52.0,43.0,-100.00,ESE,103,17.0,26.0,72,0.00,,,0.00,89.000000,,2013-05-26 14:42:00,
2013-05-26 09:52:00,52.0,43.0,-100.00,ESE,103,17.0,26.0,72,0.00,,,0.00,89.000000,,2013-05-26 14:52:00,
2013-05-26 10:01:00,52.0,43.0,-100.00,ESE,103,17.0,26.0,72,0.00,,,0.00,89.000000,,2013-05-26 15:01:00,
2013-05-26 10:11:00,53.0,43.0,-100.00,ESE,113,14.0,25.0,69,0.00,,,0.00,132.000000,,2013-05-26 15:11:00,
2013-05-26 10:33:00,53.0,43.0,-100.00,ESE,113,14.0,25.0,69,0.00,,,0.00,132.000000,,2013-05-26 15:33:00,
2013-05-26 10:43:00,53.0,43.0,-100.00,ESE,113,14.0,25.0,69,0.00,,,0.00,132.000000,,2013-05-26 15:43:00,
2013-05-26 10:53:00,53.0,43.0,-100.00,ESE,113,14.0,25.0,69,0.00,,,0.00,132.000000,,2013-05-26 15:53:00,
2013-05-26 11:03:00,53.0,43.0,-100.00,ESE,113,14.0,25.0,69,0.00,,,0.00,132.000000,,2013-05-26 16:03:00,
2013-05-26 11:11:00,53.0,45.0,-100.00,SE,127,15.0,22.0,73,0.00,,,0.00,211.000000,,2013-05-26 16:11:00,
2013-05-26 11:33:00,53.0,45.0,-100.00,SE,127,15.0,22.0,73,0.00,,,0.00,211.000000,,2013-05-26 16:33:00,
2013-05-26 11:42:00,53.0,45.0,-100.00,SE,127,15.0,22.0,73,0.00,,,0.00,211.000000,,2013-05-26 16:42:00,
2013-05-26 11:53:00,53.0,45.0,-100.00,SE,127,15.0,22.0,73,0.00,,,0.00,211.000000,,2013-05-26 16:53:00,
2013-05-26 12:02:00,53.0,45.0,-100.00,SE,127,15.0,22.0,73,0.00,,,0.00,211.000000,,2013-05-26 17:02:00,
2013-05-26 12:11:00,54.0,45.0,-100.00,ESE,112,15.0,22.0,71,0.00,,,0.00,165.000000,,2013-05-26 17:11:00,
2013-05-26 12:32:00,54.0,45.0,-100.00,ESE,112,15.0,22.0,71,0.00,,,0.00,165.000000,,2013-05-26 17:32:00,
2013-05-26 12:42:00,54.0,45.0,-100.00,ESE,112,15.0,22.0,71,0.00,,,0.00,165.000000,,2013-05-26 17:42:00,
2013-05-26 12:52:00,54.0,45.0,-100.00,ESE,112,15.0,22.0,71,0.00,,,0.00,165.000000,,2013-05-26 17:52:00,
2013-05-26 13:01:00,54.0,45.0,-100.00,ESE,112,15.0,22.0,71,0.00,,,0.00,165.000000,,2013-05-26 18:01:00,
2013-05-26 13:11:00,56.0,46.0,-100.00,ESE,102,21.0,26.0,68,0.00,,,0.00,361.000000,,2013-05-26 18:11:00,
2013-05-26 13:32:00,56.0,46.0,-100.00,ESE,102,21.0,26.0,68,0.00,,,0.00,361.000000,,2013-05-26 18:32:00,
2013-05-26 13:42:00,56.0,46.0,-100.00,ESE,102,21.0,26.0,68,0.00,,,0.00,361.000000,,2013-05-26 18:42:00,
2013-05-26 13:52:00,56.0,46.0,-100.00,ESE,102,21.0,26.0,68,0.00,,,0.00,361.000000,,2013-05-26 18:52:00,
2013-05-26 14:01:00,56.0,46.0,-100.00,ESE,102,21.0,26.0,68,0.00,,,0.00,361.000000,,2013-05-26 19:01:00,
2013-05-26 14:11:00,52.0,47.0,-100.00,ESE,116,15.0,25.0,83,0.00,,,0.00,159.000000,,2013-05-26 19:11:00,
2013-05-26 14:32:00,52.0,47.0,-100.00,ESE,116,15.0,25.0,83,0.00,,,0.00,159.000000,,2013-05-26 19:32:00,
2013-05-26 14:42:00,52.0,47.0,-100.00,ESE,116,15.0,25.0,83,0.00,,,0.00,159.000000,,2013-05-26 19:42:00,
2013-05-26 14:52:00,52.0,47.0,-100.00,ESE,116,15.0,25.0,83,0.00,,,0.00,159.000000,,2013-05-26 19:52:00,
2013-05-26 15:02:00,52.0,47.0,-100.00,ESE,116,15.0,25.0,83,0.00,,,0.00,159.000000,,2013-05-26 20:02:00,
2013-05-26 15:11:00,53.0,46.0,-100.00,East,89,16.0,25.0,77,0.00,,,0.00,182.000000,,2013-05-26 20:11:00,
2013-05-26 15:32:00,53.0,46.0,-100.00,East,89,16.0,25.0,77,0.00,,,0.00,182.000000,,2013-05-26 20:32:00,
2013-05-26 15:42:00,53.0,46.0,-100.00,East,89,16.0,25.0,77,0.00,,,0.00,182.000000,,2013-05-26 20:42:00,
2013-05-26 15:52:00,53.0,46.0,-100.00,East,89,16.0,25.0,77,0.00,,,0.00,182.000000,,2013-05-26 20:52:00,
2013-05-26 16:02:00,53.0,46.0,-100.00,East,89,16.0,25.0,77,0.00,,,0.00,182.000000,,2013-05-26 21:02:00,
2013-05-26 16:11:00,54.0,46.0,-100.00,East,98,17.0,24.0,74,0.00,,,0.00,318.000000,,2013-05-26 21:11:00,
2013-05-26 16:33:00,54.0,46.0,-100.00,East,98,17.0,24.0,74,0.00,,,0.00,318.000000,,2013-05-26 21:33:00,
2013-05-26 16:43:00,54.0,46.0,-100.00,East,98,17.0,24.0,74,0.00,,,0.00,318.000000,,2013-05-26 21:43:00,
2013-05-26 16:53:00,54.0,46.0,-100.00,East,98,17.0,24.0,74,0.00,,,0.00,318.000000,,2013-05-26 21:53:00,
2013-05-26 17:03:00,54.0,46.0,-100.00,East,98,17.0,24.0,74,0.00,,,0.00,318.000000,,2013-05-26 22:03:00,
2013-05-26 17:11:00,55.0,47.0,-100.00,East,87,15.0,23.0,75,0.00,,,0.00,225.000000,,2013-05-26 22:11:00,
2013-05-26 17:33:00,55.0,47.0,-100.00,East,87,15.0,23.0,75,0.00,,,0.00,225.000000,,2013-05-26 22:33:00,
2013-05-26 17:42:00,55.0,47.0,-100.00,East,87,15.0,23.0,75,0.00,,,0.00,225.000000,,2013-05-26 22:42:00,
2013-05-26 17:53:00,55.0,47.0,-100.00,East,87,15.0,23.0,75,0.00,,,0.00,225.000000,,2013-05-26 22:53:00,
2013-05-26 18:02:00,55.0,47.0,-100.00,East,87,15.0,23.0,75,0.00,,,0.00,225.000000,,2013-05-26 23:02:00,
2013-05-26 18:11:00,55.0,49.0,-100.00,East,94,15.0,23.0,79,0.00,,,0.00,188.000000,,2013-05-26 23:11:00,
2013-05-26 18:32:00,55.0,49.0,-100.00,East,94,15.0,23.0,79,0.00,,,0.00,188.000000,,2013-05-26 23:32:00,
2013-05-26 18:43:00,55.0,49.0,-100.00,East,94,15.0,23.0,79,0.00,,,0.00,188.000000,,2013-05-26 23:43:00,
2013-05-26 18:52:00,55.0,49.0,-100.00,East,94,15.0,23.0,79,0.00,,,0.00,188.000000,,2013-05-26 23:52:00,
2013-05-26 19:02:00,55.0,49.0,-100.00,East,94,15.0,23.0,79,0.00,,,0.00,188.000000,,2013-05-27 00:02:00,
2013-05-26 20:11:00,54.0,49.0,-100.00,ESE,109,13.0,19.0,84,-99.99,,,0.00,19.000000,,2013-05-27 01:11:00,
2013-05-26 20:32:00,54.0,49.0,-100.00,ESE,109,13.0,19.0,84,-99.99,,,0.00,19.000000,,2013-05-27 01:32:00,
2013-05-26 20:42:00,54.0,49.0,-100.00,ESE,109,13.0,19.0,84,-99.99,,,0.00,19.000000,,2013-05-27 01:42:00,
2013-05-26 20:52:00,54.0,49.0,-100.00,ESE,109,13.0,19.0,84,-99.99,,,0.00,19.000000,,2013-05-27 01:52:00,
2013-05-26 21:02:00,54.0,49.0,-100.00,ESE,109,13.0,19.0,84,-99.99,,,0.00,19.000000,,2013-05-27 02:02:00,
2013-05-26 21:11:00,54.0,49.0,-100.00,ESE,103,10.0,17.0,83,0.00,,,0.00,3.000000,,2013-05-27 02:11:00,
2013-05-26 21:32:00,54.0,49.0,-100.00,ESE,103,10.0,17.0,83,0.00,,,0.00,3.000000,,2013-05-27 02:32:00,
2013-05-26 21:43:00,54.0,49.0,-100.00,ESE,103,10.0,17.0,83,0.00,,,0.00,3.000000,,2013-05-27 02:43:00,
2013-05-26 21:52:00,54.0,49.0,-100.00,ESE,103,10.0,17.0,83,0.00,,,0.00,3.000000,,2013-05-27 02:52:00,
2013-05-26 22:02:00,54.0,49.0,-100.00,ESE,103,10.0,17.0,83,0.00,,,0.00,3.000000,,2013-05-27 03:02:00,
2013-05-26 22:11:00,54.0,49.0,-100.00,ESE,102,10.0,19.0,83,0.00,,,0.00,0.000000,,2013-05-27 03:11:00,
2013-05-26 22:33:00,54.0,49.0,-100.00,ESE,102,10.0,19.0,83,0.00,,,0.00,0.000000,,2013-05-27 03:33:00,
2013-05-26 22:43:00,54.0,49.0,-100.00,ESE,102,10.0,19.0,83,0.00,,,0.00,0.000000,,2013-05-27 03:43:00,
2013-05-26 22:53:00,54.0,49.0,-100.00,ESE,102,10.0,19.0,83,0.00,,,0.00,0.000000,,2013-05-27 03:53:00,
2013-05-26 23:02:00,54.0,49.0,-100.00,ESE,102,10.0,19.0,83,0.00,,,0.00,0.000000,,2013-05-27 04:02:00,
2013-05-26 23:11:00,54.0,48.0,-100.00,East,97,14.0,19.0,81,0.00,,,0.00,0.000000,,2013-05-27 04:11:00,
2013-05-26 23:33:00,54.0,48.0,-100.00,East,97,14.0,19.0,81,0.00,,,0.00,0.000000,,2013-05-27 04:33:00,
2013-05-26 23:43:00,54.0,48.0,-100.00,East,97,14.0,19.0,81,0.00,,,0.00,0.000000,,2013-05-27 04:43:00,
2013-05-26 23:52:00,54.0,48.0,-100.00,East,97,14.0,19.0,81,0.00,,,0.00,0.000000,,2013-05-27 04:52:00,